Location: G?dap?du
(16.8262°N, 80.8446°E)
Time: 17:35:32
(UTC+00:00)

Daily predictions for brighter satellites

Satellite Brightness Start Highest point End
(mag) Time Altitude Azimuth Time Altitude Azimuth Time Altitude Azimuth
Meteor 1-12 Rocket 4.3 13:29:09 10° N 13:34:42 60° E 13:40:15 10° SSE
Cosmos 1943 4.1 13:34:56 10° SSE 13:39:34 26° ESE 13:44:10 10° NE
Ariane H10+ 4.0 13:37:15 10° SW 13:39:58 18° S 13:43:34 10° SE
GPS 2-04 Rocket1 4.5 13:37:27 10° W 13:40:36 23° SW 13:43:40 10° SSE
Cosmos 1733 4.3 13:38:13 10° NNW 13:41:49 46° W 13:45:25 10° SSW
DASH 3.3 13:33:08 10° WNW 13:44:52 70° NNE 13:48:00 10° ESE
Cosmos 1943 Rocket 3.9 13:45:03 10° NNE 13:48:16 15° ENE 13:51:28 10° ESE
Cosmos 1626 3.2 13:45:34 10° SSE 13:48:33 24° E 13:51:30 10° NE
GPS 2-14 Rocket1 2.7 13:45:15 10° WSW 13:49:18 65° SSE 13:53:19 10° E
H-2A R/B 4.4 13:49:03 10° E 13:50:18 11° ENE 13:51:32 10° NE
Cosmos 1707 2.6 13:47:15 10° S 13:51:02 71° E 13:54:48 10° N
CZ-4B R/B 3.7 13:45:43 10° S 13:51:11 66° WSW 13:56:46 10° NNW
GPS 2-17 Rocket1 3.8 13:48:37 10° SW 13:52:36 32° SSE 13:56:20 12° E
Cosmos 1766 3.3 13:49:11 10° N 13:53:06 86° W 13:56:59 10° S
Meteor 1-15 Rocket 4.3 13:48:46 10° N 13:54:42 76° E 14:00:34 10° S
Cosmos 494 Rocket 4.0 13:55:04 10° NNW 14:00:15 85° WSW 14:05:27 10° S
Cosmos 1048 Rocket 4.2 13:56:48 10° NNW 14:01:55 74° WSW 14:07:06 10° S
YAOGAN 1 3.1 13:58:06 10° S 14:02:21 60° WSW 14:06:36 10° NNW
Cosmos 1242 Rocket 3.3 14:03:28 10° NNE 14:06:27 29° E 14:07:53 21° SE
In-Cosmos 22 4.1 14:01:41 10° S 14:07:03 89° E 14:12:20 10° N
Cosmos 405 Rocket 2.7 14:03:31 10° S 14:07:24 67° E 14:11:20 10° NNE
ATLAS V CENTAUR R/B 3.1 14:08:04 10° WSW 14:09:37 20° SSW 14:10:01 19° S
USA 267 3.2 14:05:42 10° NE 14:12:12 70° SE 14:18:42 10° SSW
Cosmos 292 Rocket 3.6 14:08:40 10° S 14:13:25 73° ESE 14:18:08 10° NNE
Cosmos 1782 Rocket 3.6 14:11:27 10° N 14:15:54 85° W 14:20:22 10° S
OBJECT-B 0.3 14:14:36 21° SSE 14:16:19 80° ENE 14:19:08 10° N
deb Chang Zheng 4 3.6 14:15:55 19° SSE 14:18:40 54° ENE 14:22:44 10° N
Lacrosse 4 Rocket 2.2 14:18:24 10° SSW 14:22:34 53° WNW 14:26:38 10° N
Cosmos 1470 2.6 14:21:47 10° N 14:25:39 86° E 14:28:19 20° S
CZ-4 R/B 3.1 14:24:33 10° SSW 14:28:19 33° W 14:32:05 10° NW
H-2A R/B 2.1 14:24:05 10° NNE 14:28:26 58° ESE 14:32:15 14° S
Cosmos 2221 Rocket 3.6 14:24:52 10° S 14:29:16 85° W 14:33:43 10° N
Okean-O 2.5 14:27:53 24° SSE 14:30:31 71° ENE 14:34:55 10° N
Okean 2 Rocket 4.0 14:28:28 10° NNE 14:32:17 28° E 14:32:26 28° E
Cosmos 2369 Rocket 4.1 14:30:08 10° NE 14:32:24 12° ENE 14:32:39 12° ENE
Cosmos 1553 Rocket 4.0 14:28:26 10° S 14:34:31 59° E 14:40:44 10° NNE
OAO 2 Rocket 3.9 14:29:36 10° WNW 14:34:42 51° SW 14:37:07 29° SSE
CSL-04 Rocket 3.6 14:35:15 22° SSE 14:38:56 82° ENE 14:44:26 10° N
Delta 202 4.1 14:34:06 10° SW 14:39:16 46° SSE 14:41:38 32° ESE
X-37B 2.3 14:37:27 10° WSW 14:39:56 30° NW 14:42:26 10° NNE
GRACE-FO 1 4.4 14:37:01 10° N 14:40:44 74° E 14:41:34 50° SSE
GRACE-FO 2 4.4 14:37:27 10° N 14:41:09 76° E 14:41:59 51° SSE
SEDSat Delta rocket 4.1 14:38:36 10° W 14:42:04 26° SSW 14:42:55 24° SSW
SJ-6B 2.6 14:41:08 41° S 14:42:22 83° W 14:46:07 10° NNW
Okean O Rocket 4.3 14:41:09 10° SW 14:43:38 15° W 14:46:08 10° WNW
Cosmos 2278 Rocket 4.1 14:39:09 10° NW 14:43:42 25° WSW 14:48:15 10° SSW
Cosmos 1378 Rocket 3.5 14:42:00 19° S 14:45:07 87° W 14:49:32 10° N
COBE Rocket 3.9 14:44:19 25° S 14:47:08 75° W 14:51:48 10° NNW
Hubble Space Telescope 2.9 14:44:14 10° NW 14:47:12 19° N 14:49:07 14° NE
S3M 4.3 14:46:28 36° SE 14:48:11 43° E 14:54:01 10° NNE
Cosmos 1674 Rocket 3.7 14:47:06 18° SSW 14:50:11 69° W 14:54:29 10° N
SL-08 ROCKET BODY 4.4 14:44:25 10° N 14:50:20 65° E 14:52:45 37° SSE
Landsat 7 3.9 14:51:04 49° ESE 14:51:36 52° ENE 14:56:10 10° N
OAO 3 Copernicus 4.3 14:47:25 10° NW 14:52:29 71° NNE 14:53:38 51° E
Spot 2 3.9 14:51:40 57° SSE 14:52:29 78° ENE 14:56:58 10° N
Iridium 4 Rocket 3.7 14:47:11 10° N 14:53:05 80° E 14:55:49 33° S
CZ-2C R/B 1.7 14:49:35 10° NW 14:53:28 46° NNE 14:53:36 46° NE
Intercosmos 25 3.2 14:50:18 10° N 14:53:20 64° ENE 14:53:20 64° ENE
Longmarch 3A Rocket 3.9 14:52:48 10° NNW 14:54:25 15° NNE 14:55:18 14° NE
Atlas Centaur 2 4.1 14:53:58 10° NW 14:56:24 14° N 14:58:38 10° NNE
IRS-1C Rocket 4.4 14:53:27 24° S 14:56:36 61° WSW 15:01:47 10° NNW
Meteor 2-17 Rocket 4.4 14:50:40 10° N 14:56:45 84° W 15:00:08 28° S
MetOp-A 3.2 14:56:56 80° SSE 14:57:09 89° ENE 15:01:14 10° NNW
Cosmos 1244 Rocket 4.4 14:54:21 10° N 15:00:25 64° E 15:01:57 48° SE
Cosmos 1269 Rocket 3.9 14:56:22 10° N 15:01:37 70° ENE 15:02:22 61° SE
Yuri Rocket 4.4 15:03:19 10° W 15:07:17 38° NNW 15:10:10 20° NE
Cosmos 1437 Rocket 3.4 15:03:34 10° N 15:06:34 49° NNE 15:06:34 49° NNE
Cosmos 1758 3.7 15:03:49 10° NNW 15:07:49 60° W 15:08:03 59° WSW
Cosmos 1238 Rocket 3.9 15:02:21 10° N 15:08:10 61° E 15:08:55 56° ESE
USA 186 4.4 15:08:37 13° W 15:08:37 13° W 15:09:46 10° WNW
Cosmos 1607 3.8 15:07:32 42° S 15:09:35 64° ESE 15:15:45 10° NNE
Milstar 3 4.3 15:00:37 10° SW 15:09:57 50° SE 15:27:43 10° ENE
Cosmos 2297 3.5 15:04:36 10° NNW 15:10:17 78° ENE 15:11:00 67° SE
SPOT 1/Viking Rocket 4.2 15:12:10 39° NE 15:12:10 39° NE 15:16:09 10° N
SL-14 R/B 4.3 15:16:20 41° W 15:16:25 42° W 15:20:04 10° NNW
CZ-3A R/B 4.2 15:08:15 10° SW 15:16:28 27° SSW 15:16:28 27° SSW
Gblst 52 Del rocket 4.5 15:16:48 10° NNW 15:23:05 57° NE 15:23:12 57° NE
H-2A R/B 4.1 15:25:09 25° WSW 15:25:24 25° W 15:28:37 10° NW
IRS-1A Rocket 4.3 15:25:45 70° ENE 15:25:45 70° ENE 15:31:31 10° N
CZ-4B R/B 4.2 15:23:20 10° NNW 15:23:59 14° NNW 15:23:59 14° NNW
GPS 2-14 Rocket1 4.4 15:25:59 10° W 15:28:18 31° WNW 15:28:18 31° WNW
Cosmos 1943 Rocket 3.1 15:26:47 10° NW 15:31:58 40° WSW 15:33:03 37° SW
GEOS 3 Rocket 3.9 15:32:19 58° WSW 15:32:19 58° WSW 15:37:10 10° NW
Cosmos 1745 Rocket 4.4 15:28:17 10° N 15:33:06 49° NE 15:33:06 49° NE
Ariane Rocket 3.9 15:41:49 43° N 15:41:49 43° N 15:45:14 10° N
ATLAS 3B CENTAUR R/B 3.9 15:32:39 10° WNW 15:45:47 55° N 15:49:16 38° ENE
Cosmos 2315 Rocket 4.2 15:50:49 63° N 15:50:49 63° N 15:56:03 10° N
Resurs 01 Rocket 3.5 15:54:19 29° NW 15:54:19 29° NW 15:56:46 10° NNW
Centaur D AC-28 4.1 15:26:19 10° WNW 16:13:07 49° SW 16:14:08 48° SSW
Cosmos 2369 Rocket 3.6 16:11:02 10° NNW 16:14:27 35° NW 16:14:27 35° NW
SL-16 R/B 3.9 20:53:08 33° N 20:53:08 33° N 20:56:24 10° N
Cosmos 2360 Rocket 4.0 20:49:05 10° N 20:52:00 27° NNE 20:52:00 27° NNE
Cosmos 2297 Rocket 3.8 21:04:40 30° ENE 21:04:40 30° ENE 21:08:20 10° NE
NOSS 3-2 (C) 4.4 21:14:31 37° NE 21:14:31 37° NE 21:17:51 10° NNE
CENTAUR R/B 3.6 21:15:27 32° N 21:15:27 32° N 21:18:48 10° NNE
Delta 2 Rocket 4.5 21:23:19 81° WNW 21:23:42 84° NNW 21:33:09 10° ENE
USA 238 DEB 3.6 21:31:25 68° N 21:31:25 68° N 21:37:04 10° NNE
USA 238 3.6 21:31:32 69° N 21:31:32 69° N 21:37:13 10° NNE
Cosmos 2219 Rocket 3.4 21:32:15 10° N 21:37:29 38° ENE 21:42:43 10° SE
Cosmos 2333 Rocket 2.4 21:39:41 10° N 21:45:26 71° ENE 21:46:21 59° SE
ALOS 2.6 21:51:05 10° NNE 21:54:58 62° NNE 21:54:58 62° NNE
SWIFT 3.3 21:59:03 44° NNE 21:59:03 44° NNE 22:02:20 10° ENE
Cosmos 990 Rocket 4.3 21:56:14 10° NNW 22:00:12 53° NW 22:00:12 53° NW
MOS 1-B Rocket 3.9 22:01:05 49° S 22:02:54 81° WSW 22:09:45 10° NNW
CZ-2D R/B 4.2 22:01:07 10° NNE 22:05:08 47° E 22:05:39 44° SE
Ariane H10+ 4.5 22:02:57 30° SSW 22:05:41 33° S 22:26:15 10° ESE
Helios 1B rocket 4.1 22:02:26 10° N 22:04:26 25° NNW 22:04:26 25° NNW
ARIANE 5 R/B 2.5 22:01:40 10° NNE 22:06:42 79° ESE 22:07:31 62° S
Cosmos 1500 Rocket 4.0 22:06:26 54° ESE 22:06:56 58° E 22:11:15 10° NNE
Cosmos 1666 3.7 22:08:58 39° ESE 22:09:20 40° E 22:12:53 10° NNE
FUSE 3.7 22:09:44 75° SW 22:10:10 84° SSE 22:15:34 10° ENE
METEOR-M 4.2 22:06:16 10° NNE 22:11:35 74° ESE 22:13:20 43° S
Meteor 1-27 Rocket 4.2 22:06:36 10° N 22:12:05 57° E 22:17:29 10° SSE
IRS-1C 4.0 22:08:29 10° N 22:13:46 69° WNW 22:14:30 61° WSW
Cosmos 1898 Rocket 3.3 22:09:37 10° NNW 22:14:48 89° WSW 22:17:15 32° SSE
Cosmos 2227 Rocket 2.1 22:15:01 58° SW 22:15:58 69° WNW 22:21:37 10° N
CZ-2C R/B 2.5 22:11:50 10° N 22:15:52 51° WNW 22:15:52 51° WNW
Cosmos 1500 3.9 22:19:59 44° NNW 22:19:59 44° NNW 22:22:45 10° N
Cosmos 2208 Rocket 4.0 22:18:06 57° SW 22:19:01 68° WNW 22:24:26 10° N
Cosmos 2333 4.4 22:13:59 10° NNW 22:19:22 48° W 22:19:22 48° W
Cosmos 1570 Rocket 4.3 22:20:19 46° W 22:20:26 46° WNW 22:25:25 10° N
Meteor 1-20 Rocket 4.3 22:21:02 50° WSW 22:21:57 56° W 22:27:24 10° N
Cosmos 1725 Rocket 4.3 22:20:17 10° NNW 22:26:01 42° W 22:26:53 40° WSW
Envisat 4.3 22:24:22 10° NNE 22:29:02 37° E 22:33:41 10° SSE
GPS 2-17 Rocket1 4.4 22:30:55 26° S 22:30:55 26° S 22:33:52 10° SE
Cosmos 2061 Rocket 4.4 22:24:01 10° NNW 22:29:59 42° W 22:31:37 36° SW
Cosmos 2219 3.4 22:31:37 40° WSW 22:33:15 54° WNW 22:38:45 10° N
COSMOS 2428 2.6 22:27:49 10° NNW 22:33:33 87° WSW 22:39:15 10° SSE
Intelsat 5-1 Rocket 2.3 22:34:14 30° N 22:34:14 30° N 22:36:08 10° NE
Cosmos 2346 Rocket 4.3 22:31:17 20° S 22:35:42 89° W 22:41:46 10° N
Cosmos 2233 Rocket 4.0 22:31:31 10° NNW 22:37:29 56° W 22:41:41 20° SSW
Cosmos 1937 Rocket 3.3 22:32:20 10° NNW 22:37:32 75° WSW 22:42:40 10° S
CZ-3C R/B 3.4 22:35:16 23° WNW 22:38:30 73° N 23:15:47 10° E
Cosmos 2263 Rocket 3.6 22:39:42 10° SSE 22:44:44 34° ESE 22:49:45 10° NE
X-37B 3.7 22:43:30 10° N 22:45:11 14° NE 22:46:53 10° ENE
Meteor 1-29 3.8 22:42:33 10° NNW 22:45:14 31° WNW 22:45:14 31° WNW
Cosmos 2297 Rocket 3.6 22:46:29 19° W 22:47:15 19° WNW 22:51:09 10° NNW
CZ-2C R/B 3.5 22:44:12 10° NNE 22:48:03 54° E 22:51:46 11° S
USA 290 3.7 22:45:39 10° NW 22:47:14 23° NW 22:47:14 23° NW
CZ-4B R/B 4.0 22:47:41 10° NNE 22:52:42 58° ESE 22:57:33 10° S
Cosmos 1315 Rocket 2.9 22:49:34 16° S 22:52:49 79° E 22:56:51 10° N
Cosmos 2237 Rocket 3.5 22:49:52 10° N 22:55:11 42° ENE 23:00:27 10° SE
Cosmos 2322 4.3 22:50:27 10° NW 22:55:29 34° WSW 23:00:30 10° SSW
Cosmos 1805 Rocket 3.8 22:54:37 24° SSW 22:56:57 49° W 23:01:15 10° N
NOSS 0 Rocket 4.0 22:52:08 10° NNW 22:58:17 80° ENE 23:04:25 10° SSE
ARIANE 5 R/B 4.4 22:56:02 10° S 22:58:45 15° SSE 23:04:11 10° ESE
Cosmos 1743 Rocket 4.5 22:57:33 26° WSW 22:58:45 30° W 23:02:38 10° NNW
Cosmos 1515 Rocket 3.8 22:54:58 10° NNW 22:59:07 45° W 23:02:27 15° SSW
IRIDIUM 104 4.4 22:55:24 16° SSW 22:59:27 53° W 23:04:32 10° NNW
Meteor 1-5 Rocket 4.0 22:55:49 10° S 23:01:19 80° W 23:06:40 10° N
Cosmos 1666 Rocket 4.2 22:57:04 10° S 23:01:21 56° E 23:05:39 10° NNE
Cosmos 44 Rocket 3.8 23:02:46 22° SW 23:05:39 44° WNW 23:10:16 10° N
Aurora 2 Rocket 2.7 23:05:03 10° WNW 23:08:01 44° NNE 23:11:10 10° E
Cosmos 1513 Rocket 4.4 23:05:49 10° N 23:11:53 83° W 23:18:00 10° S
Meteor 2-13 Rocket 4.5 23:06:18 10° SSW 23:12:19 64° W 23:18:23 10° N
CZ-4C R/B 3.6 23:15:03 10° SSE 23:19:16 85° ENE 23:23:36 10° N
Sich 1 3.9 23:17:03 14° SW 23:20:11 30° W 23:24:01 10° NNW
Cosmos 2219 Rocket 3.6 23:17:39 10° WNW 23:21:02 16° WSW 23:24:25 10° SW
Cosmos 1484 Rocket 4.4 23:18:55 10° NNW 23:21:40 19° WNW 23:23:41 13° WSW
COSMOS 2455 4.1 23:18:09 10° N 23:23:54 47° ENE 23:29:38 10° SE
SJ-12 4.0 23:22:30 10° NNE 23:26:37 85° E 23:30:44 10° S
CZ-2C R/B 2.9 23:22:03 10° N 23:26:57 88° WNW 23:31:42 10° SSW
Landsat 4 3.9 23:24:04 10° N 23:27:38 49° WNW 23:31:14 10° SSW
Cosmos 389 Rocket 2.6 23:25:09 10° S 23:28:35 74° E 23:32:04 10° N
Cosmos 2098 Rocket 4.2 23:27:58 12° WSW 23:29:28 15° W 23:31:23 10° NW
YAOGAN 6 3.9 23:27:14 10° NNW 23:30:07 23° WNW 23:32:58 10° SW
ATLAS CENTAUR R/B 2.4 23:25:58 10° S 23:30:09 51° ESE 23:34:39 10° NE
Timation 2 Rocket 4.1 23:24:21 10° SSW 23:30:15 57° WNW 23:36:25 10° N
ATLAS 3B R/B 3.7 23:24:28 10° S 23:30:23 42° ESE 23:36:26 10° NE
Cosmos 773 Rocket 4.0 23:25:36 10° SSW 23:30:51 80° WNW 23:36:05 10° N
PSLV R/B 4.2 23:27:42 10° N 23:31:33 36° WNW 23:35:23 10° SW
Cosmos 2034 Rocket 4.1 23:26:11 10° N 23:32:23 82° E 23:38:31 10° S
Meteor 1-11 Rocket 4.3 23:28:08 10° S 23:34:00 67° E 23:39:55 10° NNE
Cosmos 371 Rocket 4.1 23:32:20 10° N 23:37:03 57° ENE 23:41:46 10° SSE
Milstar 3 Cent rocket 3.3 23:34:14 10° SW 23:39:10 45° SE 23:47:30 10° ENE
GPS 2-15 Rocket1 4.3 23:35:15 10° SW 23:39:27 31° SSE 23:43:35 10° E
Cosmos 1707 Rocket 4.2 23:35:18 10° N 23:39:39 62° E 23:44:01 10° SSE
SWIFT 2.9 23:36:11 10° WNW 23:40:17 56° N 23:44:23 10° E
MINOTAUR 4 R/B 4.3 23:39:06 10° S 23:42:28 44° W 23:45:49 10° NNW
NOAA 11 4.2 23:38:47 10° N 23:44:09 68° WNW 23:49:31 10° SSW
Cosmos 1536 2.9 23:41:59 10° S 23:45:58 82° E 23:50:00 10° N
